Home   Weather   Gander   Past weeks

Flag for Canada Past Weather in Gander, Newfoundland and Labrador, Canada — Yesterday and Last 2 Weeks

Now
19 °F

Overcast.


Feels Like: 13 °F
Forecast: 17 / 26 °F
Wind: 5 mph from Southeast

Location: Gander Int. Airport

Current Time: Jan 20, 2017 at 6:39:25 am

Latest Report: Jan 20, 2017 at 5:30 am


Visibility: 20 mi

Pressure: 30.05 "Hg

Humidity: 86%

Dew Point: 16 °F

Location of GanderLocation

Past Weather in Gander — Graph

°F

Gander Temperature Yesterday

Maximum temperature yesterday: 21 °F (at 6:30 pm)
Minimum temperature yesterday: 12 °F (at 8:30 am)
Average temperature yesterday: 16 °F

High & Low Weather Summary for the Past Weeks

 TemperatureHumidityPressure
High43 °F (Jan 13, 10:18 am)100% (Jan 5, 4:30 am)30.85 "Hg (Jan 5, 4:30 am)
Low3 °F (Jan 14, 5:30 pm)43% (Jan 14, 2:30 pm)29.16 "Hg (Jan 8, 4:44 pm)
Average22 °F81%29.98 "Hg
* Reported Jan 5 4:30 am — Jan 20 4:30 am, Gander, Weather by CustomWeather, © 2017

Note: Actual official high and low records may vary slightly from our data, if they occured in-between our weather recording intervals... More about our weather records

Advertising

Gander Weather History for the Previous 24 Hours

Scroll right to see more
 ConditionsComfort  
Time TempWeatherWind HumidityBarometerVisibility
4:30 am
Fri, Jan 20
19 °FOvercast.7 mph86%30.05 "Hg20 mi
3:30 am18 °FMostly cloudy.5 mph93%30.05 "Hg20 mi
2:30 am18 °FOvercast.5 mph86%30.06 "Hg20 mi
1:30 am18 °FMostly cloudy.3 mph86%30.06 "Hg20 mi
12:30 am18 °FMostly cloudy.5 mph93%30.07 "Hg20 mi
11:30 pm
Thu, Jan 19
18 °FOvercast.5 mph93%30.07 "Hg20 mi
10:30 pm19 °FMostly cloudy.6 mph86%30.08 "Hg20 mi
9:30 pm19 °FMostly cloudy.6 mph86%30.09 "Hg20 mi
8:30 pm19 °FOvercast.7 mph93%30.09 "Hg20 mi
7:30 pm19 °FOvercast.3 mph86%30.09 "Hg20 mi
6:30 pm21 °FOvercast.8 mph80%30.10 "Hg20 mi
5:30 pm19 °FPassing clouds.8 mph79%30.09 "Hg20 mi
4:30 pm19 °FPartly cloudy.7 mph79%30.08 "Hg20 mi
3:30 pm19 °FBroken clouds.9 mph86%30.09 "Hg20 mi
2:30 pm18 °FBroken clouds.12 mph79%30.10 "Hg20 mi
1:30 pm16 °FBroken clouds.7 mph86%30.11 "Hg20 mi
12:30 pm16 °FPartly sunny.12 mph86%30.12 "Hg15 mi
12:13 pm16 °FPartly sunny.10 mph86%30.13 "Hg15 mi
11:47 am14 °FSnow flurries. Partly sunny.12 mph92%30.13 "Hg15 mi
11:30 am14 °FPartly sunny.14 mph92%30.14 "Hg15 mi
10:30 am12 °FPartly sunny.7 mph92%30.14 "Hg12 mi
9:30 am12 °FIce fog.8 mph85%30.15 "Hg5 mi
9:16 am12 °FSnow flurries. Ice fog.8 mph92%30.14 "Hg4 mi
9:03 am12 °FSnow flurries. Ice fog.8 mph92%30.14 "Hg2 mi
8:30 am12 °FIce fog.7 mph92%30.14 "Hg4 mi
7:30 am14 °FIce fog.6 mph92%30.14 "Hg4 mi
6:48 am14 °FFog.6 mph92%30.14 "Hg8 mi
6:30 am14 °FFog.6 mph92%30.14 "Hg10 mi
Weather by CustomWeather, © 2017

See weather overviewHow to use our weather pages